Starlink 3102

operational
NORAD ID: 49151 Int'l Des: 2021-082 Owner: SPXS Country: US Constellation: starlink
LEOCIRCULAR

Über Starlink 3102

Beschreibung wird geladen...

Live-Position

3D-Globus wird geladen...

Nächste Überflüge

Höhenverlauf

Altitude vs Time

uPlot chart will show altitude changes over time

Zweizeiliger Elementsatz

1 49151U 21082X 25303.19359494 -.00001698 00000-0 -13462-3 0 9995
2 49151 69.9999 223.4717 0002946 272.4857 87.5965 14.98316031228610
Epoch: 30. Okt. 2025 • Age: 24 hours

Aktueller Status

Höhe 574.9 km
Geschwindigkeit 7.57 km/s
Subsatellitenpunkt -3.71°S, 109.92°E
Startdatum 14. Sept. 2021
Alter 4.1 years
Typ internet

Technische Details

Klassifizierung Payload
Masse 297.00 kg
Trockenmasse 275.00 kg
Gesamtmasse 297.00 kg
Länge 0.20 m
Durchmesser 2.80 m
Spannweite 9.00 m
Form Box + pan
Hersteller SPXS
Bus-Typ Starlink
Phasenstatus In Orbit
Besitzer/Staat SPXS/US

Große Konstellationen

Loading constellations...